Back to catalog

MICROSCOPE

AliveScienceSSO
NORAD 41457·PAYLOAD·🇫🇷 France

Launched Apr 25, 2016 from Guiana Space Centre

Loading…

Next Passes (next 24 hours)

TLE

FreshSource: Space-Track

Epoch: Sep 14, 2026, 12:00 UTC

1 41457U 16025B   26257.50037324  .00000552  00000-0  12552-3 0  9991
2 41457  98.2456 269.6244 0000937  82.3663 277.7643 14.59703894551756

Track MICROSCOPE in real time with AllMySat

Download on the App Store